Weather History for KDUJ - May, 2012

Change the Weather History Date:

Friday, May 25, 2012

  Actual Average Record
Temperature  
Mean Temperature 73 °F 59 °F  
Max Temperature 84 °F 70 °F 84 °F (2012)
Min Temperature 62 °F 48 °F 30 °F (1992)
Degree Days  
Heating Degree Days 0 7  
Month to date heating degree days 112 250  
Since 1 July heating degree days 5213 6763  
Cooling Degree Days 8 1  
Month to date cooling degree days 34 13  
Year to date cooling degree days 39 17  
Growing Degree Days 22 (Base 50)    
Moisture  
Dew Point 60 °F    
Average Humidity 70    
Maximum Humidity 93    
Minimum Humidity 47    
Precipitation  
Precipitation 0.00 in 0.15 in - ()
Month to date precipitation 3.13 3.41  
Sea Level Pressure  
Sea Level Pressure 30.06 in    
Wind  
Wind Speed 7 mph (South)    
Max Wind Speed 15 mph    
Max Gust Speed 23 mph    
Visibility 10 miles    
Events      
T = Trace of Precipitation, MM = Missing Value Source: NWS Daily Summary

Daily Weather History Graph

Daily Weather History Graph

Search for Another Location

Airport or City:

Trip Planner

Search our weather history database for the weather conditions in past years. The results will help you decide how hot, cold, wet, or windy it might be!

Date:

Astronomy

May. 25, 2012 Rise Set
Actual Time 5:48 AM EDT 8:36 PM EDT
Civil Twilight 5:16 AM EDT 9:09 PM EDT
Nautical Twilight 4:35 AM EDT 9:50 PM EDT
Astronomical Twilight 3:48 AM EDT 10:37 PM EDT
Moon 9:47 AM EDT (5/25) No Moon Set
Length of Visible Light 15h 53m
Length of Day
14h 48m
Waxing Crescent, 19% of the Moon is Illuminated
May 25
Waxing Crescent
May 28
First Quarter
Jun 4
Full
Jun 11
Last Quarter
Jun 19
New

Hourly Weather History & Observations

Time (EDT) Temp. Heat Index Dew Point Humidity Pressure Visibility Wind Dir Wind Speed Gust Speed Precip Events Conditions
12:56 AM 64.9 °F - 57.9 °F 78% 30.02 in 10.0 mi SE 8.1 mph - N/A   Clear
1:56 AM 64.9 °F - 59.0 °F 81% 30.03 in 10.0 mi SSE 8.1 mph - N/A   Partly Cloudy
2:56 AM 64.0 °F - 59.0 °F 84% 30.04 in 10.0 mi SE 6.9 mph - N/A   Clear
3:56 AM 63.0 °F - 59.0 °F 87% 30.04 in 10.0 mi SE 6.9 mph - N/A   Clear
4:56 AM 63.0 °F - 59.0 °F 87% 30.05 in 10.0 mi SE 6.9 mph - N/A   Mostly Cloudy
5:56 AM 62.1 °F - 59.0 °F 90% 30.06 in 9.0 mi SE 6.9 mph - N/A   Clear
6:56 AM 62.6 °F - 60.8 °F 94% 30.11 in 10.0 mi SE 4.6 mph - N/A   Clear
7:56 AM 66.0 °F - 60.1 °F 81% 30.09 in 10.0 mi South 3.5 mph - N/A   Clear
8:56 AM 70.0 °F - 61.0 °F 73% 30.08 in 10.0 mi Variable 6.9 mph - N/A   Clear
9:56 AM 73.0 °F - 60.1 °F 64% 30.07 in 10.0 mi SW 8.1 mph - N/A   Clear
10:56 AM 75.9 °F - 60.1 °F 58% 30.06 in 10.0 mi South 9.2 mph - N/A   Clear
11:56 AM 78.1 °F - 57.9 °F 50% 30.05 in 10.0 mi SW 12.7 mph 19.6 mph N/A   Clear
12:56 PM 81.0 °F 81.3 °F 59.0 °F 47% 30.06 in 10.0 mi SW 9.2 mph 20.7 mph N/A   Clear
1:56 PM 80.1 °F 80.9 °F 60.1 °F 50% 30.05 in 10.0 mi Variable 5.8 mph - N/A   Scattered Clouds
2:56 PM 82.0 °F 82.4 °F 60.1 °F 47% 30.05 in 10.0 mi WSW 10.4 mph - N/A   Scattered Clouds
3:56 PM 81.0 °F 81.6 °F 60.1 °F 49% 30.05 in 10.0 mi SW 11.5 mph - N/A   Clear
4:56 PM 82.0 °F 82.7 °F 61.0 °F 49% 30.05 in 10.0 mi SW 6.9 mph - N/A   Mostly Cloudy
5:56 PM 82.0 °F 82.7 °F 61.0 °F 49% 30.06 in 10.0 mi WSW 9.2 mph - N/A   Scattered Clouds
6:56 PM 80.1 °F 81.2 °F 62.1 °F 54% 30.05 in 10.0 mi SSW 5.8 mph - N/A   Partly Cloudy
7:56 PM 77.0 °F - 62.1 °F 60% 30.06 in 10.0 mi SSW 4.6 mph - N/A   Clear
8:56 PM 73.9 °F - 61.0 °F 64% 30.06 in 10.0 mi SSW 4.6 mph - N/A   Clear
9:56 PM 73.9 °F - 60.1 °F 62% 30.08 in 10.0 mi SSW 3.5 mph - N/A   Clear
10:56 PM 71.1 °F - 60.1 °F 68% 30.09 in 10.0 mi SSW 4.6 mph - N/A   Clear
11:56 PM 70.0 °F - 60.1 °F 71% 30.10 in 10.0 mi SSW 3.5 mph - N/A   Clear